�N����,����,�~����,�C��,���x,�C��,����,���ϕ���,�ő�u�ԕ���,�ő厞����,���˗�,�I�_���x,�n�����x,�ő啗���N��,DTYPE
"16/10/27","00:10",0.0,17.5,85.7,1011.6,330.4,1.3,2.4,344.5,0.00,15.1,19.2,"00:01:52",1
"16/10/27","00:20",0.0,17.3,85.7,1011.9,338.0,1.0,2.2,352.6,0.00,14.9,19.1,"00:13:52",1
"16/10/27","00:30",0.0,17.1,85.9,1012.1,338.4,1.0,1.8,346.5,0.00,14.8,19.0,"00:26:24",1
"16/10/27","00:40",0.0,16.9,86.8,1011.9,322.0,0.7,1.3,319.4,0.00,14.7,19.2,"00:36:48",1
"16/10/27","00:50",0.0,16.6,87.7,1012.3,316.0,0.8,1.6,319.5,0.00,14.6,18.9,"00:46:32",1
"16/10/27","01:00",0.0,16.3,88.9,1011.9,334.3,0.7,1.4,332.8,0.00,14.5,18.9,"00:57:04",1
"16/10/27","01:10",0.0,15.9,89.8,1012.3,300.1,0.6,1.4,326.8,0.00,14.3,19.0,"01:03:44",1
"16/10/27","01:20",0.0,15.6,90.7,1012.6,312.7,1.0,2.2,341.0,0.00,14.1,18.8,"01:13:52",1
"16/10/27","01:30",0.0,15.4,91.8,1012.3,325.0,0.8,2.0,341.5,0.00,14.1,18.8,"01:21:28",1
"16/10/27","01:40",0.0,15.3,92.2,1012.1,313.5,0.7,1.8,338.2,0.00,14.1,18.7,"01:33:12",1
"16/10/27","01:50",0.0,15.2,92.6,1012.6,300.1,0.7,1.4,328.0,0.00,14.0,18.7,"01:45:28",1
"16/10/27","02:00",0.0,15.4,92.5,1012.6,314.5,0.7,2.7,336.8,0.00,14.2,18.8,"01:52:00",1
"16/10/27","02:10",0.0,15.4,91.5,1012.6,310.2,0.6,2.0,10.4,0.00,14.1,18.7,"02:07:52",1
"16/10/27","02:20",0.0,15.8,90.2,1013.0,314.0,1.0,1.9,334.9,0.00,14.2,18.8,"02:12:08",1
"16/10/27","02:30",0.0,15.8,89.0,1013.0,303.5,0.8,1.6,323.7,0.00,14.0,18.6,"02:29:44",1
"16/10/27","02:40",0.0,16.1,88.1,1013.0,336.2,1.0,2.4,359.9,0.00,14.2,18.5,"02:36:56",1
"16/10/27","02:50",0.0,16.2,88.1,1013.3,334.8,1.2,2.6,1.4,0.00,14.3,18.3,"02:40:48",1
"16/10/27","03:00",0.0,15.9,89.1,1013.5,318.7,1.0,1.9,330.5,0.00,14.1,18.6,"02:50:08",1
"16/10/27","03:10",0.0,15.6,89.8,1013.3,296.7,0.7,1.6,315.5,0.00,14.0,18.4,"03:03:28",1
"16/10/27","03:20",0.0,15.3,90.4,1013.3,318.8,0.8,1.7,327.5,0.00,13.8,18.4,"03:10:32",1
"16/10/27","03:30",0.0,14.9,91.0,1013.3,316.9,1.0,1.7,337.9,0.00,13.5,18.3,"03:22:08",1
"16/10/27","03:40",0.0,14.6,91.9,1013.5,335.4,0.6,1.3,315.1,0.00,13.3,18.3,"03:39:12",1
"16/10/27","03:50",0.0,14.3,92.5,1014.0,309.0,1.0,1.4,317.0,0.00,13.1,18.2,"03:46:24",1
"16/10/27","04:00",0.0,14.1,93.2,1013.8,318.3,1.1,1.9,321.5,0.00,13.1,18.2,"03:58:16",1
"16/10/27","04:10",0.0,13.8,93.7,1013.8,306.2,1.2,1.8,341.2,0.00,12.8,18.2,"04:07:44",1
"16/10/27","04:20",0.0,13.6,94.2,1013.5,319.5,1.1,1.7,311.1,0.00,12.7,18.3,"04:19:52",1
"16/10/27","04:30",0.0,13.4,94.6,1013.8,306.7,1.0,1.4,330.0,0.00,12.6,18.0,"04:25:04",1
"16/10/27","04:40",0.0,13.2,94.9,1014.2,308.3,1.0,1.6,316.4,0.00,12.4,17.9,"04:36:08",1
"16/10/27","04:50",0.0,13.2,95.1,1014.0,321.1,1.3,1.9,335.7,0.00,12.5,17.8,"04:41:04",1
"16/10/27","05:00",0.0,13.1,95.4,1014.2,304.1,1.0,1.6,326.1,0.00,12.4,17.9,"04:55:36",1
"16/10/27","05:10",0.0,13.0,95.7,1014.0,298.8,1.1,1.7,317.8,0.00,12.4,17.8,"05:01:28",1
"16/10/27","05:20",0.0,12.9,95.9,1014.2,318.8,1.2,1.6,315.6,0.00,12.3,17.8,"05:17:12",1
"16/10/27","05:30",0.0,12.7,95.9,1014.5,289.5,0.8,1.0,293.3,0.00,12.1,17.6,"05:24:56",1
"16/10/27","05:40",0.0,12.7,96.3,1014.2,322.7,1.1,2.2,331.2,0.00,12.2,17.6,"05:34:24",1
"16/10/27","05:50",0.0,12.7,96.3,1014.5,314.1,1.2,2.0,336.3,0.00,12.2,17.7,"05:43:36",1
"16/10/27","06:00",0.0,12.6,96.5,1014.2,296.5,1.0,1.7,324.4,0.00,12.1,17.6,"05:59:28",1
"16/10/27","06:10",0.0,12.8,97.0,1014.5,306.3,1.1,1.6,309.2,0.00,12.4,17.5,"06:06:42",1
"16/10/27","06:20",0.0,13.1,97.2,1014.7,305.8,0.8,1.4,322.0,0.00,12.7,17.5,"06:13:12",1
"16/10/27","06:30",0.0,13.6,97.2,1014.5,314.0,1.2,1.9,336.6,0.00,13.2,17.3,"06:24:16",1
"16/10/27","06:40",0.0,13.9,97.1,1014.7,304.2,1.0,1.6,334.5,0.00,13.5,17.3,"06:32:32",1
"16/10/27","06:50",0.0,14.1,96.8,1014.7,325.7,1.2,2.4,339.8,0.00,13.6,17.3,"06:48:56",1
"16/10/27","07:00",0.0,14.3,96.5,1015.2,328.0,1.3,2.1,339.3,0.00,13.8,17.3,"06:53:20",1
"16/10/27","07:10",0.0,14.6,96.1,1015.2,318.6,1.2,1.7,332.4,0.00,14.0,17.3,"07:07:36",1
"16/10/27","07:20",0.0,15.1,95.3,1015.6,319.3,1.3,2.0,321.5,0.00,14.4,17.6,"07:12:40",1
"16/10/27","07:30",0.0,15.5,94.1,1015.6,323.1,1.3,2.2,349.8,0.01,14.6,17.5,"07:23:12",1
"16/10/27","07:40",0.0,15.8,92.2,1015.6,328.6,1.5,2.5,334.3,0.02,14.6,17.6,"07:31:52",1
"16/10/27","07:50",0.0,16.2,91.0,1015.9,316.5,1.2,2.2,316.3,0.03,14.8,17.4,"07:43:44",1
"16/10/27","08:00",0.0,16.4,89.7,1016.4,315.1,1.2,2.1,332.7,0.03,14.7,17.5,"07:58:24",1
"16/10/27","08:10",0.0,16.6,88.9,1016.6,298.3,0.6,1.7,236.5,0.04,14.8,17.6,"08:09:28",1
"16/10/27","08:20",0.0,16.9,88.3,1016.8,291.6,0.5,1.0,303.5,0.05,15.0,17.6,"08:11:52",1
"16/10/27","08:30",0.0,17.0,85.2,1017.1,256.9,1.0,2.2,238.2,0.05,14.5,17.7,"08:26:08",1
"16/10/27","08:40",0.0,18.2,78.2,1017.3,344.7,0.8,2.1,310.8,0.13,14.4,17.8,"08:37:20",1
"16/10/27","08:50",0.0,18.6,74.1,1017.3,341.8,1.6,4.2,16.4,0.14,13.9,17.6,"08:41:36",1
"16/10/27","09:00",0.0,18.3,70.8,1017.5,343.9,1.1,3.3,332.1,0.07,13.0,17.9,"08:55:04",1
"16/10/27","09:10",0.0,18.4,70.3,1017.8,346.7,1.6,4.1,333.1,0.09,12.9,18.1,"09:07:04",1
"16/10/27","09:20",0.0,18.5,68.0,1018.0,351.6,1.8,3.9,355.7,0.14,12.5,18.2,"09:12:56",1
"16/10/27","09:30",0.0,18.5,68.0,1017.8,350.6,2.1,4.8,335.6,0.13,12.5,17.8,"09:21:44",1
"16/10/27","09:40",0.0,19.3,65.8,1017.8,353.4,1.3,2.9,321.8,0.24,12.8,18.2,"09:32:16",1
"16/10/27","09:50",0.0,19.9,62.8,1017.8,359.5,2.1,5.0,353.7,0.38,12.6,18.2,"09:45:44",1
"16/10/27","10:00",0.0,20.1,62.4,1017.5,334.2,1.6,4.1,332.5,0.38,12.7,18.4,"09:57:52",1
"16/10/27","10:10",0.0,20.3,56.9,1017.3,6.9,1.3,3.3,20.8,0.40,11.5,18.4,"10:00:02",1
"16/10/27","10:20",0.0,20.7,59.3,1017.3,357.3,1.5,4.0,28.1,0.40,12.5,18.6,"10:10:24",1
"16/10/27","10:30",0.0,20.5,58.0,1016.8,337.8,2.0,5.7,0.0,0.40,12.0,18.7,"10:27:28",1
"16/10/27","10:40",0.0,20.2,58.9,1017.1,13.6,2.2,5.6,3.8,0.37,12.0,19.0,"10:38:32",1
"16/10/27","10:50",0.0,20.5,55.8,1016.4,12.3,2.0,6.5,337.2,0.42,11.4,19.1,"10:41:36",1
"16/10/27","11:00",0.0,20.9,58.5,1017.1,359.4,2.1,4.5,16.5,0.44,12.5,19.3,"10:53:44",1
"16/10/27","11:10",0.0,20.8,57.0,1016.8,356.0,1.7,3.9,28.9,0.38,12.0,19.2,"11:00:16",1
"16/10/27","11:20",0.0,20.3,56.0,1017.1,1.2,2.6,5.4,344.0,0.41,11.3,19.6,"11:18:08",1
"16/10/27","11:30",0.0,20.5,55.0,1017.3,350.6,2.3,7.3,359.3,0.42,11.2,19.5,"11:29:12",1
"16/10/27","11:40",0.0,20.6,56.0,1016.6,14.6,2.3,5.9,336.4,0.47,11.6,19.8,"11:30:40",1
"16/10/27","11:50",0.0,20.6,53.2,1016.8,357.9,2.7,5.5,344.5,0.46,10.8,19.5,"11:47:04",1
"16/10/27","12:00",0.0,20.3,54.7,1016.6,330.5,2.2,8.5,358.3,0.42,10.9,19.8,"11:58:56",1
"16/10/27","12:10",0.0,20.4,51.4,1016.6,340.7,2.3,4.8,24.8,0.48,10.1,20.0,"12:09:28",1
"16/10/27","12:20",0.0,20.6,52.0,1016.6,0.9,2.5,5.4,1.1,0.46,10.4,19.9,"12:12:08",1
"16/10/27","12:30",0.0,21.0,50.5,1016.4,347.3,1.6,4.5,104.4,0.47,10.4,20.3,"12:28:48",1
"16/10/27","12:40",0.0,20.4,52.5,1016.1,15.4,2.1,5.0,354.5,0.46,10.4,20.2,"12:38:32",1
"16/10/27","12:50",0.0,20.4,49.7,1016.4,1.1,2.7,5.5,20.3,0.45,9.6,20.3,"12:49:28",1
"16/10/27","13:00",0.0,20.4,50.2,1016.1,345.0,2.5,5.6,356.7,0.44,9.7,20.5,"12:56:40",1
"16/10/27","13:10",0.0,20.3,51.7,1016.4,335.5,2.8,5.2,340.3,0.44,10.1,20.5,"13:04:08",1
"16/10/27","13:20",0.0,20.6,50.5,1015.6,325.3,2.2,5.6,343.2,0.42,10.0,20.4,"13:10:32",1
"16/10/27","13:30",0.0,20.0,53.6,1015.6,324.1,1.8,4.0,326.2,0.20,10.3,20.5,"13:20:48",1
"16/10/27","13:40",0.0,20.0,53.3,1015.6,346.5,2.2,6.2,349.4,0.24,10.3,20.5,"13:37:36",1
"16/10/27","13:50",0.0,19.9,52.9,1015.6,349.8,2.1,4.3,31.3,0.25,10.1,20.6,"13:43:28",1
"16/10/27","14:00",0.0,19.6,54.8,1015.6,351.2,2.3,4.5,10.2,0.25,10.3,20.5,"13:51:20",1
"16/10/27","14:10",0.0,19.9,52.9,1015.9,351.8,1.8,4.4,347.9,0.32,10.1,20.5,"14:08:56",1
"16/10/27","14:20",0.0,19.8,51.9,1015.9,350.1,2.3,5.4,2.9,0.32,9.7,20.7,"14:16:40",1
"16/10/27","14:30",0.0,19.8,53.2,1015.9,356.5,2.6,4.4,355.9,0.30,10.1,20.6,"14:23:52",1
"16/10/27","14:40",0.0,19.5,50.9,1016.6,4.7,2.7,4.9,14.0,0.28,9.1,20.8,"14:38:32",1
"16/10/27","14:50",0.0,19.3,52.0,1016.1,2.4,2.5,4.7,344.9,0.25,9.2,20.6,"14:41:36",1
"16/10/27","15:00",0.0,19.1,53.2,1016.1,1.8,2.7,6.7,328.4,0.23,9.4,20.6,"14:53:36",1
"16/10/27","15:10",0.0,19.0,55.4,1016.1,338.2,2.2,4.5,355.2,0.21,9.9,20.5,"15:01:44",1
"16/10/27","15:20",0.0,18.9,54.0,1016.1,352.1,1.7,2.9,353.2,0.18,9.4,20.3,"15:11:36",1
"16/10/27","15:30",0.0,18.6,55.0,1016.1,346.0,1.7,6.0,344.1,0.11,9.4,20.2,"15:25:44",1
"16/10/27","15:40",0.0,18.2,58.1,1016.6,347.7,1.3,3.1,14.1,0.04,9.9,20.2,"15:30:56",1
"16/10/27","15:50",0.0,17.9,58.6,1016.4,355.1,1.7,3.1,342.0,0.04,9.7,20.3,"15:45:04",1
"16/10/27","16:00",0.0,17.4,59.0,1016.8,334.5,1.7,4.0,346.9,0.02,9.4,20.1,"15:57:12",1
"16/10/27","16:10",0.0,17.2,61.2,1017.3,336.1,1.6,3.7,347.0,0.03,9.7,20.0,"16:08:56",1
"16/10/27","16:20",0.0,17.0,62.2,1017.1,318.3,1.3,3.2,347.5,0.02,9.8,19.8,"16:18:16",1
"16/10/27","16:30",0.0,16.9,63.6,1017.3,321.6,1.2,2.1,340.2,0.01,10.0,19.7,"16:23:36",1
"16/10/27","16:40",0.0,16.6,63.1,1017.3,331.1,1.3,3.1,348.2,0.01,9.6,19.7,"16:36:08",1
"16/10/27","16:50",0.0,16.5,62.5,1017.1,326.2,1.0,2.7,54.4,0.01,9.4,19.5,"16:49:44",1
"16/10/27","17:00",0.0,16.2,63.5,1017.1,281.2,0.8,2.2,347.6,0.00,9.3,19.6,"16:54:16",1
"16/10/27","17:10",0.0,16.0,64.3,1016.8,307.1,1.2,3.3,358.5,0.00,9.3,19.7,"17:04:56",1
"16/10/27","17:20",0.0,15.7,63.6,1017.1,345.3,1.7,3.9,335.8,0.00,8.9,19.3,"17:16:32",1
"16/10/27","17:30",0.0,15.3,64.4,1017.1,309.6,0.8,2.0,329.8,0.00,8.7,19.2,"17:25:20",1
"16/10/27","17:40",0.0,14.6,67.8,1017.3,280.0,0.6,2.0,217.6,0.00,8.8,19.1,"17:34:16",1
"16/10/27","17:50",0.0,14.5,68.0,1017.5,320.9,1.1,4.2,22.0,0.00,8.7,19.0,"17:46:48",1
"16/10/27","18:00",0.0,14.7,68.0,1017.3,329.5,1.2,2.2,151.9,0.00,8.9,19.0,"17:52:16",1
"16/10/27","18:10",0.0,14.3,70.2,1017.1,332.5,1.3,2.0,344.6,0.00,9.0,18.7,"18:09:28",1
"16/10/27","18:20",0.0,13.5,73.7,1017.3,339.2,1.2,1.9,2.3,0.00,8.9,18.7,"18:11:12",1
"16/10/27","18:30",0.0,12.9,76.4,1017.3,314.4,1.1,1.8,322.1,0.00,8.9,18.6,"18:21:28",1
"16/10/27","18:40",0.0,13.1,76.2,1017.5,313.7,1.7,2.9,327.2,0.00,9.0,18.5,"18:33:08",1
"16/10/27","18:50",0.0,13.7,72.9,1017.8,307.1,1.6,2.9,314.9,0.00,9.0,18.5,"18:41:44",1
"16/10/27","19:00",0.0,13.7,72.6,1017.8,307.4,1.5,2.6,322.2,0.00,8.9,18.4,"18:58:40",1
"16/10/27","19:10",0.0,13.6,72.6,1017.8,327.1,1.8,3.1,350.1,0.00,8.8,18.3,"19:01:20",1
"16/10/27","19:20",0.0,13.5,73.1,1017.5,331.7,1.5,2.5,343.6,0.00,8.8,18.2,"19:10:40",1
"16/10/27","19:30",0.0,13.1,73.6,1017.8,305.1,1.0,2.7,346.4,0.00,8.5,17.8,"19:21:04",1
"16/10/27","19:40",0.0,12.9,75.3,1018.2,290.0,0.8,1.7,334.6,0.00,8.7,17.7,"19:33:24",1
"16/10/27","19:50",0.0,12.6,76.9,1017.8,325.7,1.2,2.4,337.4,0.00,8.7,17.7,"19:44:48",1
"16/10/27","20:00",0.0,12.4,77.7,1017.3,305.7,1.2,2.1,303.0,0.00,8.7,17.8,"19:51:46",1
"16/10/27","20:10",0.0,11.9,79.5,1017.5,295.5,0.8,1.4,330.8,0.00,8.5,17.6,"20:00:56",1
"16/10/27","20:20",0.0,11.4,81.8,1017.5,280.3,0.7,1.2,306.6,0.00,8.4,17.6,"20:15:50",1
"16/10/27","20:30",0.0,11.0,84.0,1017.5,313.1,0.7,1.1,323.2,0.00,8.4,17.5,"20:26:00",1
"16/10/27","20:40",0.0,11.2,84.5,1017.5,325.5,1.1,1.9,305.3,0.00,8.7,17.4,"20:36:48",1
"16/10/27","20:50",0.0,10.8,85.7,1018.0,277.2,1.0,1.3,313.9,0.00,8.5,17.1,"20:40:38",1
"16/10/27","21:00",0.0,10.8,86.5,1017.5,316.9,1.5,1.9,332.8,0.00,8.7,17.2,"20:58:00",1
"16/10/27","21:10",0.0,10.7,87.3,1018.0,292.7,1.1,1.6,320.5,0.00,8.7,17.2,"21:05:48",1
"16/10/27","21:20",0.0,11.0,87.7,1017.5,308.5,1.3,2.5,338.5,0.00,9.1,17.1,"21:16:28",1
"16/10/27","21:30",0.0,11.4,86.4,1017.8,320.6,1.5,2.7,332.9,0.00,9.3,17.1,"21:27:56",1
"16/10/27","21:40",0.0,11.5,84.9,1017.8,312.4,1.5,2.4,322.0,0.00,9.1,17.0,"21:30:58",1
"16/10/27","21:50",0.0,11.4,85.0,1017.5,293.2,1.0,1.6,327.6,0.00,9.0,16.9,"21:46:22",1
"16/10/27","22:00",0.0,11.6,85.0,1017.8,308.6,1.3,2.0,312.7,0.00,9.2,16.9,"21:50:50",1
"16/10/27","22:10",0.0,11.9,83.4,1017.3,297.5,1.2,2.0,333.8,0.00,9.2,16.7,"22:00:26",1
"16/10/27","22:20",0.0,12.0,82.6,1017.3,279.0,1.0,1.3,248.1,0.00,9.2,16.9,"22:14:24",1
"16/10/27","22:30",0.0,12.1,83.0,1017.8,292.9,1.1,1.4,248.8,0.00,9.3,16.8,"22:22:16",1
"16/10/27","22:40",0.0,12.1,83.1,1017.5,316.6,1.2,2.2,322.0,0.00,9.4,16.9,"22:38:32",1
"16/10/27","22:50",0.0,12.3,82.3,1017.8,315.7,1.3,2.4,341.3,0.00,9.4,16.9,"22:41:30",1
"16/10/27","23:00",0.0,12.4,82.2,1017.8,308.7,1.2,1.8,318.6,0.00,9.5,16.9,"22:58:24",1
"16/10/27","23:10",0.0,12.4,82.2,1017.8,300.3,1.0,2.0,339.5,0.00,9.5,16.6,"23:04:56",1
"16/10/27","23:20",0.0,12.4,82.5,1017.5,310.1,1.1,1.6,308.3,0.00,9.5,16.7,"23:17:12",1
"16/10/27","23:30",0.0,12.4,83.1,1017.5,323.5,1.3,1.8,328.6,0.00,9.7,16.8,"23:26:28",1
"16/10/27","23:40",0.0,12.4,83.8,1017.1,317.1,1.2,2.2,341.2,0.00,9.8,16.9,"23:32:42",1
"16/10/27","23:50",0.0,12.2,85.1,1017.3,303.5,0.7,1.4,309.1,0.00,9.8,16.7,"23:46:40",1
"16/10/27","24:00",0.0,12.0,85.9,1017.1,291.6,0.2,0.9,287.1,0.00,9.8,16.7,"23:59:52",1
